"Pseudo-MPEC" for N00gyb6

Created 2020 Aug 15 11:07:17 UT using Find_Orb

Click here for an explanation of pseudo-MPECs

 
 Astrometry: 
     N00gyb6  S2020 07 23(XwrRFl44D^/@-Uof7R`hA'f)6.#@jr!7-i[EyV-;1gdQ$)d`JFLC51
     N00gyb6  s2020 07 23-\4eTU?y'@6h0K4c'uXlbBCg:'+++'mg;XvJwu,ret(jbEr]#FygC51
     N00gyb6  S2020 07 23mCLmNXtuEAstrometryjSun+p#5O_7*ROaJO:f-/hTredacted;8C51
     N00gyb6  s2020 07 23F)gFsAAALlB)[Kh;brGk3r@M864HYh:Yq'%D!f(Gb1\3yROKyA8KC51
     N00gyb6  S2020 07 23aedRSf1BZjm;J8%X@2b-e:\kn#)s?I]q#(x]Llyv*q!bq[\]Di#8C51
     N00gyb6  s2020 07 23%H`]+ZT=M1u//X[U12_(g!TI77GZn_`FwHZSVQALiQ_$`p6SXU-'C51
     N00gyb6  S2020 07 23mxNMmggcgd1G=hyw/Kf:0E![[U4m0ut#s+@jL*WkoYb]X`G];HKpC51
     N00gyb6  s2020 07 23)aKqT\l)9?+x:OKx-pmfXQxrR[ym]$df?i7tK]W?#b=q8Boy8b?qC51
     N00gyb6  S2020 07 23m=CERBm6!WV@Fn:LQqk.4bY+NYwkxH^ol^!hQkibH0bp$hGP30dvC51
     N00gyb6  s2020 07 23iD[r#Xc!'!JM9K;D=+,?oI5s76I%g!D1\hnYCO4mNsrj#Y/r\xEMC51
     N00gyb6  S2020 07 244oR56SYHiOj^.43v'6JT.wDeV-7l+\?@+r/B%BDoq4SYH@U*0Z^rC51
     N00gyb6  s2020 07 24W)]g6NYv1RJ%^*!(yr=,+?L:I]N.U_7m'A9#RlsIpRaSjS%a_02%C51
     N00gyb6  S2020 07 24PI-^$mOKs0m3hyYaHO:0*mT]MoC7u/%XJc6qlbD#/1kbj,etu$H)C51
     N00gyb6  s2020 07 24;ux^2Mm)S%Spp$c2H@AZe)$KnxLCVtrIXV[,$d_]q/SuLexF`X1DC51
     N00gyb6  S2020 07 2467l5cjk7pc`Otu5R`t5W]C-0b+VI=BmSY9Bv)4gQM)%H1bl!tOD'C51
     N00gyb6  s2020 07 24_,fp/)8V6qpYGyG4SRa6Xc.ij*h'COm98P+of?y#rF7LyRWpKvKEC51
     N00gyb6  S2020 07 24v/gWS$FU.R$N.CN2;tIAs^*r/_H4*xDqUQh3wwAO!o^DCp_rs'EOC51
     N00gyb6  s2020 07 24?PGNiIMG`xVkfiiclickcdrdZVbWHOT)uhere)H%QPHTlu-sXx:HC51
     N00gyb6  S2020 07 24A#2:BFJ^$Q,-+i\4k;?Acth^POX.ML0o)CcKC3d!p/I:E8_a1[J_C51
     N00gyb6  s2020 07 24Ic5xuD%GTNPQ7Vu%@PCj9G^__DJ%$0NgEbi_/x4:O%p$*jU(ZnO?C51
     N00gyb6  S2020 07 24-4c-^h2HpynP75%5#??]iwAY,In!xgbf*p%L\Mv5uLQ3;1sPuVtsC51
     N00gyb6  s2020 07 24Q-Y!!ZSBw@LmyR)LNHTJ5p[kiegy_:Pms+H._E+YKRX$[*,S,a#uC51
     N00gyb6  S2020 07 24W8gF$.y=HOdu[g)@2hS]@1;UoHcV/@Q@Y@]L?TforNn?J),-Irv/C51
     N00gyb6  s2020 07 24pgKL]M596UDVhcP%ioZexplanationr=yBG_OpW%MfvnkHQr7D.FC51

Station data:
(C51) WISE. Measurers A. Mainzer, E. Wright, J. Bauer, T. Grav, J. Dailey, J.
   Masiero, R. Cutri, R. McMillan, R. Walker.

Orbital elements:  N00gyb6
   Perihelion 2020 Jul 21.505061 +/- 0.365 TT = 12:07:17 (JD 2459052.005061)
Epoch 2020 Jul 24.0 TT = JDT 2459054.5   Earth MOID: 0.0508   AutoNEOCP
M   0.72214298 +/- 0.7              (J2000 ecliptic)
n   0.28944311 +/- 0.35             Peri.  336.18279 +/- 1.2
a   2.26339610 +/- 1.77             Node   330.87055 +/- 4.7
e   0.5421974 +/- 0.364             Incl.   16.74926 +/- 5.6
P   3.41                   H 21.1   G  0.15   U 12.0  
q 1.03618845 +/- 0.0203    Q 3.49060376 +/- 11.7
From 12 observations 2020 July 23-24 (28.2 hr); mean residual 0".73
Residuals in arcseconds: 
200723 C51  .58+  .33+    200723 C51  .47+  1.1-    200724 C51  .52-  .27+    
200723 C51  1.4-  .03+    200724 C51  1.8-  .09-    200724 C51  .01-  .18-    
200723 C51  .38+  .33+    200724 C51  .41+  1.1+    200724 C51  .77-  .09+    
200723 C51  1.1+  .42-    200724 C51  1.0+  .32-    200724 C51  .50+  .04-    

Ephemerides (geocentric):
Date (UTC) HH   RA              Dec         delta   r     elong  mag " sig PA
---- -- -- --  -------------   -----------  ------ ------ -----  --- ---- ---
2020 08 15 11  02 30 40.249   +20 54 02.64  .23401 1.0811 100.7 20.5 1381  87
2020 08 15 12  02 30 38.312   +20 57 29.83  .23413 1.0813 100.8 20.5 1385  87
2020 08 15 13  02 30 36.372   +21 00 56.77  .23426 1.0814 100.8 20.5 1390  87
2020 08 15 14  02 30 34.426   +21 04 23.47  .23438 1.0815 100.8 20.5 1394  87
2020 08 15 15  02 30 32.476   +21 07 49.92  .23450 1.0817 100.9 20.5 1398  87
2020 08 15 16  02 30 30.520   +21 11 16.13  .23463 1.0818 100.9 20.5 1403  87
2020 08 15 17  02 30 28.560   +21 14 42.08  .23475 1.0820 100.9 20.5 1407  87
2020 08 15 18  02 30 26.595   +21 18 07.79  .23488 1.0821 100.9 20.5 1411  87
2020 08 15 19  02 30 24.625   +21 21 33.26  .23500 1.0823 101.0 20.5 1415  87
2020 08 15 20  02 30 22.651   +21 24 58.48  .23513 1.0824 101.0 20.5 1420  87
2020 08 15 21  02 30 20.671   +21 28 23.45  .23525 1.0826 101.0 20.5 1424  87
2020 08 15 22  02 30 18.687   +21 31 48.18  .23538 1.0827 101.1 20.5 1428  87
2020 08 15 23  02 30 16.698   +21 35 12.66  .23550 1.0829 101.1 20.5 1433  87
2020 08 16 00  02 30 14.704   +21 38 36.89  .23563 1.0830 101.1 20.5 1437  87
2020 08 16 01  02 30 12.705   +21 42 00.88  .23575 1.0832 101.1 20.5 1441  87
2020 08 16 02  02 30 10.701   +21 45 24.62  .23588 1.0833 101.2 20.5 1446  87
2020 08 16 03  02 30 08.692   +21 48 48.12  .23600 1.0835 101.2 20.5 1450  87
2020 08 16 04  02 30 06.678   +21 52 11.37  .23613 1.0836 101.2 20.5 1454  87
2020 08 16 05  02 30 04.660   +21 55 34.37  .23626 1.0838 101.2 20.5 1459  87
2020 08 16 06  02 30 02.636   +21 58 57.13  .23638 1.0839 101.3 20.5 1463  87
2020 08 16 07  02 30 00.607   +22 02 19.64  .23651 1.0841 101.3 20.5 1467  87
2020 08 16 08  02 29 58.574   +22 05 41.91  .23664 1.0842 101.3 20.5 1472  87
2020 08 16 09  02 29 56.535   +22 09 03.93  .23676 1.0844 101.4 20.5 1476  87
2020 08 16 10  02 29 54.492   +22 12 25.70  .23689 1.0845 101.4 20.5 1480  87
2020 08 16 11  02 29 52.443   +22 15 47.23  .23702 1.0847 101.4 20.5 1485  87
2020 08 16 12  02 29 50.390   +22 19 08.51  .23714 1.0848 101.4 20.5 1489  87
2020 08 16 13  02 29 48.331   +22 22 29.55  .23727 1.0850 101.5 20.5 1493  87
2020 08 16 14  02 29 46.268   +22 25 50.34  .23740 1.0851 101.5 20.5 1498  86
2020 08 16 15  02 29 44.200   +22 29 10.89  .23753 1.0853 101.5 20.5 1502  86
2020 08 16 16  02 29 42.126   +22 32 31.19  .23765 1.0854 101.6 20.5 1506  86
2020 08 16 17  02 29 40.047   +22 35 51.24  .23778 1.0856 101.6 20.5 1511  86
2020 08 16 18  02 29 37.964   +22 39 11.05  .23791 1.0857 101.6 20.5 1515  86
2020 08 16 19  02 29 35.875   +22 42 30.61  .23804 1.0859 101.6 20.5 1519  86
2020 08 16 20  02 29 33.781   +22 45 49.93  .23817 1.0860 101.7 20.5 1523  86
2020 08 16 21  02 29 31.683   +22 49 09.01  .23830 1.0862 101.7 20.5 1528  86
2020 08 16 22  02 29 29.579   +22 52 27.83  .23842 1.0863 101.7 20.5 1532  86
2020 08 16 23  02 29 27.470   +22 55 46.42  .23855 1.0865 101.8 20.5 1536  86
2020 08 17 00  02 29 25.356   +22 59 04.75  .23868 1.0866 101.8 20.5 1541  86
2020 08 17 01  02 29 23.236   +23 02 22.85  .23881 1.0868 101.8 20.5 1545  86
2020 08 17 02  02 29 21.112   +23 05 40.69  .23894 1.0869 101.8 20.5 1549  86
2020 08 17 03  02 29 18.983   +23 08 58.30  .23907 1.0871 101.9 20.5 1554  86
2020 08 17 04  02 29 16.848   +23 12 15.65  .23920 1.0872 101.9 20.5 1558  86
2020 08 17 05  02 29 14.708   +23 15 32.76  .23933 1.0874 101.9 20.5 1562  86
2020 08 17 06  02 29 12.564   +23 18 49.63  .23946 1.0875 101.9 20.5 1567  86
2020 08 17 07  02 29 10.414   +23 22 06.26  .23959 1.0877 102.0 20.5 1571  86
2020 08 17 08  02 29 08.258   +23 25 22.63  .23972 1.0878 102.0 20.5 1575  86
2020 08 17 09  02 29 06.098   +23 28 38.77  .23985 1.0880 102.0 20.5 1580  86
2020 08 17 10  02 29 03.932   +23 31 54.66  .23998 1.0882 102.1 20.5 1584  86